Regional Weather Roundup
Issued by NWS Charleston, WV

Home | Current Version | Previous Version | Graphics & Text | Print | Product List | Glossary On
Versions: 1 2 3 4 5 6 7 8 9 10 11 12 13 14 15 16 17 18 19 20 21 22 23 24 25 26 27 28
000
ASUS41 KRLX 182110
RWRRLX
West Virginia Regional Weather Roundup
National Weather Service Charleston WV
500 PM EDT FRI AUG 18 2017

Note: "fair" indicates few or no clouds below 12,000 feet with no
significant weather and/or obstructions to visibility.

WVZ003-182200-
Northern Panhandle of West Virginia

CITY           SKY/WX    TMP DP  RH WIND       PRES   REMARKS
WHEELING       SUNNY     82  61  48 W14G26    29.85S
$$

WVZ009-182200-
Northwest West Virginia

CITY           SKY/WX    TMP DP  RH WIND       PRES   REMARKS
PARKERSBURG    MOSUNNY   83  66  56 NW15G22   29.89S
$$

WVZ006-182200-
Western West Virginia

CITY           SKY/WX    TMP DP  RH WIND       PRES   REMARKS
HUNTINGTON     MOSUNNY   86  63  45 W10G17    29.89S
$$

WVZ015-182200-
West Central West Virginia

CITY           SKY/WX    TMP DP  RH WIND       PRES   REMARKS
CHARLESTON     MOSUNNY   86  68  54 W8        29.87F
$$

WVZ022-031-182200-
North Central West Virginia

CITY           SKY/WX    TMP DP  RH WIND       PRES   REMARKS
CLARKSBURG     MOSUNNY   84  68  58 W6        29.85F
MORGANTOWN     CLOUDY    85  67  54 VRB6      29.85F
$$

WVZ025-035-042-045-182200-
Southern West Virginia

CITY           SKY/WX    TMP DP  RH WIND       PRES   REMARKS
BECKLEY        CLOUDY    77  65  66 W7        29.98S
LOGAN          PTSUNNY   79  72  78 S5        29.94S
BLUEFIELD      CLOUDY    67  65  93 W7        30.04R
LEWISBURG      LGT RAIN  75  66  73 W5G20     29.96S
$$

WVZ047-182200-
Northern Mountains of West Virginia

CITY           SKY/WX    TMP DP  RH WIND       PRES   REMARKS
ELKINS         MOSUNNY   79  69  71 VRB5      29.92F
$$

WVZ052-182200-
Eastern Panhandle of West Virginia

CITY           SKY/WX    TMP DP  RH WIND       PRES   REMARKS
MARTINSBURG    CLOUDY    82  72  71 SW7       29.79S
PETERSBURG     CLOUDY    86  72  62 W8        29.83F
$$




USA.gov is the U.S. government's official web portal to all federal, state and local government web resources and services.